Vorticity
nan nan nan nan nan nan nan nan nan nan nan nan nan nan nan nan nan nan nan nan nan nan nan nan nan nan nan nan nan nan nan nan nan nan nan nan nan nan nan nan nan nan nan nan nan nan nan nan nan nan nan nan nan nan
nan 9 9 9 9 9 8 8 7 6 6 6 5 6 7 6 9 17 16 9 12 10 11 10 10 11 9 9 12 7 15 9 8 11 10 8 9 9 12 16 9 9 9 9 8 10 2 1 10 4 10 14 12 nan
nan 8 9 9 8 9 9 9 8 7 7 6 5 6 7 6 7 17 14 12 16 13 9 11 8 11 14 9 7 8 7 10 11 11 12 11 10 9 9 7 8 6 10 10 5 4 3 14 6 4 12 16 12 nan
nan 9 9 9 9 8 9 9 8 8 8 7 5 5 7 7 6 12 13 12 15 10 11 16 9 9 13 15 10 5 5 8 8 10 12 9 8 10 8 5 10 11 10 13 11 -2 12 5 -9 6 12 14 20 nan
nan 9 9 9 9 8 9 9 8 9 9 7 7 6 6 7 9 12 7 9 12 11 14 12 13 11 12 13 11 11 8 8 10 12 11 8 7 11 13 12 14 15 9 7 1 3 6 -3 2 10 13 16 21 nan
nan 10 10 9 8 9 8 9 8 8 9 8 7 6 6 7 12 15 7 7 9 13 15 10 12 12 8 12 14 12 11 13 11 10 10 10 9 11 12 8 12 12 7 3 -1 5 6 11 8 12 20 20 21 nan
nan 9 8 9 9 9 8 8 8 8 9 9 7 6 5 7 14 14 13 7 8 14 14 15 11 7 9 12 12 10 12 12 9 11 11 8 16 13 7 7 2 8 13 11 8 13 13 8 10 20 22 23 20 nan
nan 9 8 9 10 9 9 8 8 9 9 9 7 6 6 11 16 11 10 5 9 14 10 12 14 12 9 9 12 10 10 10 12 8 11 12 14 12 4 5 9 9 12 14 10 7 10 7 13 21 19 17 16 nan
nan 10 10 10 10 10 9 9 9 9 10 9 5 7 9 10 11 11 12 14 9 8 11 10 9 13 13 11 12 10 10 12 11 11 10 14 15 6 -1 1 9 11 10 8 11 11 14 16 14 11 17 15 14 nan
nan 11 11 11 10 10 9 9 10 10 8 3 3 7 13 18 12 6 9 13 13 11 10 10 11 9 11 11 12 14 11 10 10 14 10 11 8 6 9 11 12 10 17 20 14 13 10 8 9 9 15 19 15 nan
nan 10 11 10 10 10 9 10 9 3 0 4 12 10 13 12 6 8 10 11 11 14 13 6 9 13 13 9 11 12 11 12 11 10 11 13 4 4 11 13 16 20 23 24 18 12 8 9 8 8 12 17 16 nan
nan 10 11 11 11 10 10 11 -0 0 4 10 12 14 9 8 10 11 13 11 9 14 14 8 13 11 8 12 12 10 11 10 12 10 12 8 -2 5 11 11 16 24 24 23 20 17 17 15 12 9 10 16 15 nan
nan 10 10 11 11 11 11 8 -2 5 10 6 7 11 11 12 9 13 11 12 15 11 9 10 8 13 12 8 11 11 12 8 10 13 12 6 5 9 11 11 14 17 20 23 18 17 19 15 15 13 10 13 16 nan
nan 10 10 11 11 12 10 4 3 -3 6 13 11 9 11 10 12 11 8 11 13 10 7 11 12 13 11 12 11 11 9 12 13 10 10 5 9 13 8 12 13 13 16 16 16 17 15 19 18 16 14 12 15 nan
nan 11 7 10 12 13 8 3 -5 2 12 12 10 12 12 8 13 9 11 11 9 9 10 12 13 12 11 11 10 10 12 12 12 10 11 8 7 9 8 9 13 12 13 12 14 15 14 15 15 14 15 14 14 nan
nan -1 16 20 13 10 0 -10 1 12 13 13 11 11 14 14 11 10 9 10 11 10 12 10 12 14 13 11 13 10 8 11 11 12 11 7 4 3 7 8 9 10 11 11 10 12 14 16 13 12 12 15 17 nan
nan 11 39 16 9 4 -14 -7 12 13 12 11 12 12 10 13 14 11 10 8 7 8 10 11 14 9 9 13 9 9 8 9 11 14 12 6 9 8 8 4 5 7 10 11 11 10 11 12 12 11 11 14 15 nan
nan 38 27 8 -5 -13 -3 14 14 13 11 12 12 14 10 9 10 8 8 10 9 10 11 9 11 12 9 11 7 4 6 7 10 10 11 11 7 13 16 9 5 3 6 9 13 11 10 10 12 9 8 13 13 nan
nan 29 21 -4 -12 -1 13 12 12 14 11 13 12 13 13 8 6 7 9 12 10 9 12 15 12 11 9 5 5 7 8 9 10 9 7 10 12 10 10 17 14 6 5 10 12 11 10 11 11 10 10 11 11 nan
nan 15 8 -8 -11 4 11 12 15 14 14 11 14 13 11 12 12 10 10 12 12 11 7 7 8 6 6 8 9 9 9 12 10 7 7 8 10 11 11 12 12 16 15 10 12 9 8 11 10 10 10 10 10 nan
nan 17 -5 -15 4 12 14 12 13 12 12 14 15 10 9 11 11 11 12 11 12 11 8 6 7 9 9 9 10 10 9 7 6 8 10 12 8 7 10 14 13 13 12 12 11 11 8 8 10 11 10 10 11 nan
nan 3 -6 10 15 13 15 13 13 13 10 16 16 8 9 13 13 12 14 15 12 12 12 11 8 8 13 12 10 9 9 10 11 11 12 12 12 12 9 8 11 11 11 11 12 12 10 10 9 11 13 11 10 nan
nan 1 13 14 13 14 16 14 12 12 13 13 9 10 11 12 12 13 14 14 13 12 12 11 12 11 10 10 12 15 15 16 15 13 13 12 12 12 11 10 10 10 10 12 13 12 11 11 12 10 11 12 11 nan
nan 11 15 12 10 14 13 12 11 13 13 12 7 9 13 13 13 12 11 11 14 13 14 13 12 13 15 15 14 14 13 15 14 13 12 12 13 13 12 12 10 11 11 11 12 13 13 11 10 12 13 13 11 nan
nan 12 10 11 14 13 13 14 11 12 13 14 10 7 12 12 12 12 14 14 16 17 17 19 16 15 14 15 14 13 14 16 15 14 13 12 12 12 13 13 12 11 11 13 15 13 11 10 12 12 13 11 9 nan
nan 18 13 8 11 15 12 13 14 9 12 13 10 12 13 10 11 12 13 14 12 18 20 17 14 14 15 15 14 15 16 16 15 14 12 13 14 12 12 11 10 12 13 13 14 13 12 12 12 10 10 12 15 nan
nan 13 14 13 14 11 10 16 13 11 12 11 13 12 9 12 12 12 14 12 10 12 12 9 8 9 10 12 13 13 14 16 15 15 19 17 13 13 13 13 12 12 13 17 18 14 12 11 11 11 10 12 15 nan
nan 21 18 10 10 9 11 13 12 11 9 11 16 11 7 11 10 10 12 11 12 9 5 4 8 12 11 11 12 12 13 14 13 12 12 14 14 15 14 13 13 12 12 16 19 15 12 12 10 10 13 12 14 nan
nan 17 16 9 6 12 12 12 11 11 13 8 8 8 5 9 10 11 8 9 11 8 9 12 12 12 11 13 13 11 12 12 13 13 12 10 13 17 18 14 14 15 17 16 12 9 13 14 13 14 15 14 15 nan
nan 7 12 14 9 11 12 14 14 12 11 10 8 8 10 11 9 9 10 12 11 13 14 12 11 13 13 11 12 14 14 15 13 10 12 12 11 13 15 16 16 16 17 16 12 12 13 12 14 15 13 11 10 nan
nan 7 11 13 12 14 14 10 11 13 12 13 14 15 11 10 11 12 12 13 13 14 13 13 14 12 13 13 13 11 13 19 18 12 7 11 15 13 12 11 10 10 11 11 12 12 11 11 10 9 8 9 12 nan
nan 13 10 11 12 12 13 14 11 12 14 12 8 9 11 13 9 16 24 19 16 17 15 14 16 16 16 14 15 15 12 12 17 18 14 13 13 12 13 12 12 11 12 12 10 9 10 9 11 10 10 11 12 nan
nan nan nan nan nan nan nan nan nan nan nan nan nan nan nan nan nan nan nan nan nan nan nan nan nan nan nan nan nan nan nan nan nan nan nan nan nan nan nan nan nan nan nan nan nan nan nan nan nan nan nan nan nan nan
CAPE
32 23 27 19 18 20 10 2 0 0 0 0 0 0 0 0 0 0 0 0 0 0 0 0 0 0 0 0 2 2 9 13 10 9 14 22 24 30 14 13 15 14 25 20 9 14 14 6 37 23 23 0 0 0
37 18 20 14 10 12 10 12 0 0 0 0 0 0 0 0 0 0 0 0 0 0 0 0 0 0 0 0 0 2 4 2 21 21 34 33 42 38 32 20 13 36 38 23 4 16 2 0 30 7 0 0 0 0
36 23 12 6 0 0 8 12 4 0 0 0 0 0 0 0 0 0 0 2 0 0 0 0 0 0 0 0 0 5 9 0 12 33 23 42 26 36 37 19 11 20 12 16 7 6 1 0 5 0 0 0 0 0
25 20 17 4 0 0 0 4 0 0 0 0 0 0 0 0 0 0 1 3 0 0 5 0 0 0 0 0 0 0 8 7 13 13 21 27 32 27 34 24 12 7 6 10 16 3 0 16 0 0 0 0 0 0
14 7 5 2 2 0 0 0 0 0 0 0 0 0 0 0 0 1 3 6 4 3 2 1 0 0 0 0 0 2 9 15 9 15 33 25 17 27 38 29 24 6 11 52 26 8 10 0 0 0 0 0 0 0
8 5 8 0 2 0 0 0 0 0 0 0 0 0 0 0 0 4 8 2 10 8 2 3 0 0 0 0 0 5 12 2 4 17 18 12 17 27 32 20 4 10 21 14 24 7 1 0 0 0 0 0 0 0
3 1 2 2 0 0 0 0 0 0 0 0 0 0 0 0 0 1 10 9 0 14 6 2 7 0 0 1 16 10 0 10 5 11 18 14 11 40 44 12 1 1 7 11 10 21 4 2 0 0 0 0 0 0
1 0 0 2 1 0 0 0 0 0 0 0 0 0 0 0 0 6 14 2 6 2 6 7 2 5 0 26 26 0 3 7 17 15 21 25 18 44 24 6 21 19 17 16 7 9 9 0 0 0 0 0 0 0
0 0 0 0 1 0 0 0 0 0 0 0 0 0 4 5 7 12 0 0 9 6 6 1 11 20 0 17 42 29 32 33 27 34 19 29 42 33 6 12 20 14 13 8 7 6 0 0 0 0 0 0 0 0
0 0 1 3 0 0 0 0 0 0 3 0 0 7 1 10 0 0 10 8 6 7 5 5 0 17 2 26 27 29 28 11 16 29 16 40 22 7 6 16 13 5 3 0 8 0 0 0 0 0 0 0 0 0
0 0 0 0 0 1 7 0 4 9 0 12 9 10 15 0 7 17 39 14 7 2 5 1 1 8 12 19 15 26 28 35 24 79 37 38 51 9 14 13 5 1 6 0 0 0 0 0 0 0 0 0 0 0
0 0 0 3 6 18 16 12 2 5 19 5 4 4 11 5 14 2 22 18 5 12 13 19 20 2 4 11 7 42 25 36 19 44 59 46 21 18 15 12 1 9 8 0 0 0 0 0 0 0 0 0 0 0
0 0 0 7 13 18 13 0 0 3 0 3 9 2 12 4 2 7 5 4 12 23 23 32 33 30 3 11 11 29 4 11 29 13 37 81 43 20 9 13 20 6 7 0 0 0 0 0 0 0 0 0 0 0
0 0 1 5 9 8 7 0 0 4 22 19 4 0 3 8 0 1 12 41 34 26 24 22 36 24 38 35 31 18 26 32 13 14 88 50 18 16 7 0 30 9 3 0 0 0 0 0 0 0 0 0 0 0
0 0 3 10 9 11 0 0 4 12 9 12 3 1 0 0 0 3 1 6 26 19 20 25 25 24 30 37 30 19 26 12 21 38 84 53 1 13 1 2 59 18 3 0 0 0 0 0 0 0 0 0 0 0
2 3 9 15 23 18 1 10 1 2 6 6 1 0 0 0 1 4 28 40 37 40 29 37 32 24 32 30 21 17 32 19 40 37 71 24 8 0 0 0 32 8 5 0 0 0 0 0 0 0 0 0 0 0
2 1 6 10 6 5 1 0 2 2 39 21 6 0 0 2 16 0 2 23 15 0 1 0 14 19 35 28 25 46 29 55 73 41 39 39 29 24 22 22 23 2 0 0 0 0 0 0 0 0 0 0 0 0
0 3 3 10 6 5 2 1 6 10 20 11 0 0 0 0 1 7 4 7 4 7 1 0 0 0 21 27 47 63 94 90 45 47 34 42 32 0 49 43 16 2 4 0 0 0 0 0 0 0 0 0 0 0
2 6 5 9 0 3 3 6 11 15 10 0 0 0 0 0 0 0 0 0 1 4 4 0 0 0 0 0 1 5 29 56 77 38 4 1 0 5 10 2 11 0 1 0 0 0 0 0 0 0 0 0 0 0
2 3 1 3 0 2 12 17 14 11 3 0 0 0 0 0 0 0 0 0 0 17 12 5 0 0 0 1 4 6 15 31 42 11 0 0 0 12 14 5 5 5 0 0 0 0 0 0 0 0 0 0 0 0
7 1 2 0 2 9 7 8 8 10 0 0 1 0 0 0 0 0 0 0 13 25 12 10 9 1 3 0 0 0 1 0 0 0 0 0 0 3 0 0 0 2 2 1 1 0 0 0 0 0 0 0 0 0
5 0 0 2 2 14 13 8 12 4 6 2 4 1 1 2 1 0 0 10 10 6 2 0 0 0 1 0 0 5 1 0 0 0 0 0 0 0 0 6 12 0 0 0 0 3 0 0 0 0 0 0 0 0
0 1 1 3 7 22 22 14 4 15 6 2 2 1 0 0 0 0 1 2 1 0 0 0 0 0 0 0 0 0 0 0 0 0 0 0 0 0 0 0 0 0 0 0 0 0 0 0 0 0 0 0 0 0
0 2 9 9 7 7 19 23 24 8 12 11 8 0 0 0 1 8 4 3 0 0 1 4 8 15 9 5 4 2 0 0 0 0 0 0 0 0 0 0 0 0 0 0 0 0 0 0 0 0 0 0 0 0
1 2 6 6 9 6 9 16 9 11 8 1 6 3 1 1 2 1 0 0 0 0 0 2 5 3 4 3 7 8 0 3 6 2 0 3 3 0 17 10 0 0 0 0 0 0 0 0 0 0 0 2 0 0
3 4 8 6 7 1 6 5 6 9 2 1 1 1 5 3 3 0 0 0 0 0 1 14 25 30 38 28 17 14 13 29 48 42 16 14 4 13 17 10 0 0 0 11 2 0 0 0 0 0 0 0 0 1
4 9 5 5 1 0 1 17 2 1 5 1 2 23 6 2 0 0 0 0 0 31 31 4 1 0 0 2 14 17 19 30 40 17 21 24 31 3 2 4 0 0 0 0 5 0 0 1 1 0 0 0 0 0
3 2 5 9 6 1 0 4 1 4 4 1 1 5 0 0 0 0 0 1 44 38 12 0 0 0 0 0 6 33 21 8 5 5 1 1 0 1 0 1 2 0 0 0 0 0 0 0 0 0 0 0 0 0
1 2 5 6 1 8 8 6 4 0 0 0 5 0 0 0 0 0 15 21 36 51 16 0 0 0 0 0 0 0 0 1 1 0 0 0 0 0 0 0 0 0 0 0 0 0 3 1 0 0 0 0 0 0
5 7 3 8 0 2 13 7 3 0 0 1 2 2 0 5 0 0 9 0 0 0 0 0 0 0 0 0 0 0 0 0 0 1 1 0 0 0 1 2 2 3 6 6 3 3 0 1 1 1 1 0 0 0
4 20 10 2 0 26 61 8 2 0 0 1 0 0 0 0 0 0 0 0 0 0 0 0 0 0 0 2 3 2 1 0 1 1 0 0 0 0 0 0 0 0 1 1 1 1 1 1 1 1 0 0 0 0
26 14 4 0 31 1 1 1 3 16 21 10 6 0 0 2 2 0 0 0 0 0 0 0 0 0 0 2 0 0 0 0 2 0 0 3 4 1 0 1 5 0 0 2 1 1 1 1 0 0 0 0 0 0
52 54 32 36 6 21 3 0 0 21 39 3 2 1 3 8 19 6 6 1 0 0 2 1 3 3 2 1 0 0 1 6 0 0 0 0 1 0 2 0 1 2 5 3 2 0 2 1 0 0 0 0 0 0